Volver al catálogo

STARLINK-30467

ActivoComunicacionesVLEO
NORAD 57895·PAYLOAD·🇺🇸 United States

Lanzado Sep 20, 2023 desde Cape Canaveral Space Force Station

Loading…

Próximos Pases (próximas 24 horas)

TLE

ActualizadoSource: CelesTrak SupGP

Época: Sep 15, 2026, 02:30 UTC

1 57895C 23146E   26258.10465278  .00037234  00000+0  13485-2 0  2585
2 57895  43.0013 324.2625 0001638 262.6269 236.0524 15.27561371    13

Sigue STARLINK-30467 en tiempo real con AllMySat

Download on the App Store